KW1M Weather Reports


Display with metric or nautical units.
time (UTC)temp
F
wind
direction
speed
MPH
gust
MPH
rain 1hr
in
rain 24hr
in
rain mn
in
humidity
%
barometer
mb
20260831023035 66 290 0.0 0.0 0.00 0.00 0.00 86 1017.8
20260831021535 66 274 0.0 0.0 0.00 0.00 0.00 87 1017.7
20260831020034 66 266 0.0 0.0 0.00 0.00 0.00 87 1017.7
20260831014537 67 124 0.0 2.0 0.00 0.00 0.00 84 1017.5
20260831013041 69 307 0.0 5.0 0.00 0.00 0.00 77 1017.6
20260831011531 70 273 0.0 1.0 0.00 0.00 0.00 75 1017.2
20260831010029 69 212 0.0 0.0 0.00 0.00 0.00 75 1017.0
20260831004529 69 232 0.0 0.0 0.00 0.00 0.00 75 1016.7
20260831003028 70 271 0.0 3.0 0.00 0.00 0.00 74 1016.7
20260831001535 70 285 0.0 5.0 0.00 0.00 0.00 73 1016.3
20260831000028 70 143 1.0 4.0 0.00 0.00 0.00 72 1016.1
20260830234528 70 229 1.0 7.0 0.00 0.00 0.00 72 1015.8
20260830233028 71 150 2.0 7.0 0.00 0.00 0.00 70 1015.8
20260830231526 71 239 2.0 8.0 0.00 0.00 0.00 68 1016.0
20260830230028 71 102 1.0 6.0 0.00 0.00 0.00 68 1015.9
20260830224524 72 172 2.0 8.0 0.00 0.00 0.00 67 1016.1
20260830223026 72 146 1.0 5.0 0.00 0.00 0.00 67 1016.1
20260830221522 73 207 1.0 7.0 0.00 0.00 0.00 65 1016.4
20260830220022 73 226 1.0 8.0 0.00 0.00 0.00 65 1016.2
20260830214522 73 127 2.0 5.0 0.00 0.00 0.00 65 1016.3
20260830213020 74 150 1.0 6.0 0.00 0.00 0.00 63 1016.3
20260830211520 74 146 0.0 3.0 0.00 0.00 0.00 65 1016.4
20260830210017 74 149 1.0 3.0 0.00 0.00 0.00 63 1016.5
20260830204517 75 274 0.0 5.0 0.00 0.00 0.00 60 1016.5
20260830203023 76 203 1.0 8.0 0.00 0.00 0.00 57 1016.7
20260830201515 77 203 0.0 6.0 0.00 0.00 0.00 54 1016.7
20260830200012 77 120 0.0 5.0 0.00 0.00 0.00 55 1017.0
20260830194511 77 143 1.0 4.0 0.00 0.00 0.00 56 1017.2
20260830193007 76 158 1.0 7.0 0.00 0.00 0.00 59 1017.3
20260830191505 75 143 0.0 0.0 0.00 0.00 0.00 63 1017.5
20260830190003 75 186 0.0 3.0 0.00 0.00 0.00 59 1017.8
20260830184502 76 160 0.0 5.0 0.00 0.00 0.00 59 1017.9
20260830183116 76 237 1.0 4.0 0.00 0.00 0.00 59 1018.0
20260830181558 76 201 0.0 6.0 0.00 0.00 0.00 61 1018.2
20260830180056 75 167 1.0 5.0 0.00 0.00 0.00 62 1018.4
20260830174557 75 243 0.0 2.0 0.00 0.00 0.00 63 1018.6
20260830173109 75 253 2.0 6.0 0.00 0.00 0.00 61 1018.7
20260830171551 74 163 0.0 8.0 0.00 0.00 0.00 63 1018.9
20260830170054 74 170 1.0 8.0 0.00 0.00 0.00 64 1019.0
20260830164552 74 146 2.0 10.0 0.00 0.00 0.00 65 1019.2
20260830163054 73 256 3.0 12.0 0.00 0.00 0.00 66 1019.3
20260830161601 72 283 1.0 5.0 0.00 0.00 0.00 67 1019.0
20260830160042 71 157 0.0 6.0 0.00 0.00 0.00 68 1019.1
20260830154541 72 127 1.0 7.0 0.00 0.00 0.00 68 1019.7
20260830153047 72 240 0.0 7.0 0.00 0.00 0.00 65 1019.6
20260830151541 73 156 2.0 6.0 0.00 0.00 0.00 64 1019.8
20260830150049 72 308 1.0 6.0 0.00 0.00 0.00 66 1019.7
20260830144536 71 246 2.0 7.0 0.00 0.00 0.00 68 1019.9
20260830143031 70 129 3.0 6.0 0.00 0.00 0.00 71 1019.9
20260830141528 69 159 1.0 9.0 0.00 0.00 0.00 71 1019.8
20260830140025 69 138 1.0 6.0 0.00 0.00 0.00 70 1020.0
20260830134524 68 142 1.0 6.0 0.00 0.00 0.00 71 1020.0
20260830133021 67 145 1.0 8.0 0.00 0.00 0.00 74 1020.1
20260830131518 66 120 2.0 6.0 0.00 0.00 0.00 75 1020.0
20260830130013 64 207 1.0 5.0 0.00 0.00 0.00 76 1020.2
20260830124511 64 233 0.0 4.0 0.00 0.00 0.00 76 1020.4
20260830123008 63 283 2.0 5.0 0.00 0.00 0.00 77 1020.5
20260830121506 62 123 1.0 4.0 0.00 0.00 0.00 77 1020.6
20260830120002 61 146 0.0 3.0 0.00 0.00 0.00 79 1020.7
20260830114605 61 194 0.0 2.0 0.00 0.00 0.00 79 1020.7
20260830113056 60 184 0.0 3.0 0.00 0.00 0.00 79 1020.5
20260830111555 60 162 0.0 2.0 0.00 0.00 0.00 79 1020.7
20260830110050 60 150 0.0 2.0 0.00 0.00 0.00 79 1020.5
20260830104549 60 189 0.0 0.0 0.00 0.00 0.00 77 1020.3
20260830103045 61 154 0.0 1.0 0.00 0.00 0.00 76 1020.4
20260830101544 61 156 0.0 4.0 0.00 0.00 0.00 75 1020.5
20260830100043 61 191 0.0 6.0 0.00 0.00 0.00 76 1020.4
20260830094540 60 184 0.0 0.0 0.00 0.00 0.00 76 1020.4
20260830093043 60 218 0.0 0.0 0.00 0.00 0.00 77 1020.5
20260830091545 60 162 0.0 2.0 0.00 0.00 0.00 77 1020.6
20260830090037 59 125 0.0 2.0 0.00 0.00 0.00 78 1020.7
20260830084535 60 131 0.0 4.0 0.00 0.00 0.00 77 1020.9
20260830083049 60 169 0.0 3.0 0.00 0.00 0.00 75 1021.0
20260830081534 61 150 0.0 0.0 0.00 0.00 0.00 74 1020.9
20260830080034 61 148 0.0 5.0 0.00 0.00 0.00 74 1020.9
20260830074534 61 158 0.0 1.0 0.00 0.00 0.00 75 1021.0
20260830073034 60 187 0.0 2.0 0.00 0.00 0.00 75 1020.9
20260830071535 60 212 0.0 1.0 0.00 0.00 0.00 75 1020.8
20260830070030 60 211 0.0 2.0 0.00 0.00 0.00 76 1020.8
20260830064535 60 249 0.0 2.0 0.00 0.00 0.00 76 1020.9
20260830063027 60 214 0.0 3.0 0.00 0.00 0.00 76 1021.0
20260830061528 60 145 0.0 1.0 0.00 0.00 0.00 76 1021.0
20260830060022 59 217 0.0 0.0 0.00 0.00 0.00 77 1021.2
20260830054524 60 188 0.0 2.0 0.00 0.00 0.00 76 1021.3
20260830053020 60 111 0.0 6.0 0.00 0.00 0.00 76 1021.2
20260830051518 60 156 0.0 0.0 0.00 0.00 0.00 77 1021.2
20260830050016 60 243 0.0 1.0 0.00 0.00 0.00 75 1021.2
20260830044514 60 217 0.0 2.0 0.00 0.00 0.00 75 1021.2
20260830043013 61 231 0.0 1.0 0.00 0.00 0.00 74 1021.3
20260830041512 61 295 0.0 0.0 0.00 0.00 0.00 73 1021.3
20260830040019 61 221 0.0 0.0 0.00 0.00 0.00 73 1021.2
20260830034509 61 232 0.0 1.0 0.00 0.00 0.00 72 1021.3
20260830033008 62 232 0.0 0.0 0.00 0.00 0.00 71 1021.4
20260830031509 61 236 0.0 1.0 0.00 0.00 0.00 70 1021.5
20260830030008 61 235 0.0 0.0 0.00 0.00 0.00 71 1021.6
20260830024516 62 236 0.0 0.0 0.00 0.00 0.00 69 1021.6